Flag for Austria Weather past 2 weeks in Graz, Styria, Austria

Now
52 °F

Passing clouds.


Feels Like: 51 °F
Forecast: 40 / 60 °F
Wind: 5 mph from Southeast

Location: Graz-Thalerhof-Flughafen

Current Time: Mar 29, 2015 at 12:37:39 PM

Latest Report: Mar 29, 2015 at 11:50 AM


Visibility: N/A

Pressure: 29.86 "Hg

Humidity: 47%

Dew point: 32 °F

Location of GrazLocation

Historic Weather in Graz — Graph

°F

Graz temperature yesterday

Maximum temperature yesterday: 55 °F (at 12:50 PM)
Minimum temperature yesterday: 34 °F (at 11:20 PM)
Average temperature yesterday: 47 °F

Past Weeks' High & Low Weather Summary

 TemperatureHumidityPressure
High63 °F (Mar 21, 2:20 PM)100% (Mar 16, 12:50 AM)30.48 "Hg (Mar 16, 12:50 AM)
Low27 °F (Mar 20, 4:20 AM)30% (Mar 20, 3:20 PM)29.68 "Hg (Mar 25, 9:20 PM)
Average44 °F70%30.09 "Hg
* Reported Mar 14 10:20 AM — Mar 29 11:20 AM, Graz, Weather by CustomWeather, © 2015

Note: Actual official high and low records may vary slightly from our data, if they occured in-between our weather recording intervals... More about our weather records

Advertising

Graz weather history for previous 24 hours

 ConditionsComfort  
Time TempWeatherWind HumidityBarometerVisibility
11:20 AM
Sun, Mar 29
50 °FPassing clouds.5 mph50%29.89 "HgN/A
10:50 AM48 °FScattered clouds.5 mph58%29.89 "HgN/A
10:20 AM46 °FScattered clouds.3 mph53%29.92 "HgN/A
9:50 AM45 °FPassing clouds.5 mph57%29.92 "HgN/A
9:20 AM43 °FPassing clouds.1 mph66%29.92 "HgN/A
8:50 AM39 °FPassing clouds.2 mph75%29.92 "HgN/A
8:20 AM37 °FScattered clouds.3 mph81%29.95 "HgN/A
7:50 AM36 °FPartly sunny.5 mph87%29.95 "HgN/A
7:20 AM36 °FPassing clouds.3 mph87%29.95 "HgN/A
6:50 AM36 °FPartly cloudy.2 mph81%29.95 "HgN/A
6:20 AM36 °FPartly cloudy.2 mph81%29.95 "HgN/A
5:50 AM36 °FPassing clouds.1 mph81%29.95 "HgN/A
5:20 AM34 °FPartly cloudy.2 mph87%29.95 "HgN/A
4:50 AM34 °FPassing clouds.2 mph81%29.95 "HgN/A
4:20 AM32 °FClear.1 mph87%29.95 "Hg10 mi
3:50 AM32 °FClear.1 mph87%29.98 "Hg10 mi
3:20 AM32 °FClear.1 mph87%29.98 "Hg10 mi
1:50 AM32 °FClear.1 mph87%29.98 "Hg10 mi
1:20 AM32 °FChilly.1 mph87%29.98 "HgN/A
12:50 AM32 °FChilly.1 mph87%29.98 "HgN/A
12:20 AM30 °FChilly.1 mph80%30.01 "HgN/A
11:50 PM
Sat, Mar 28
34 °FChilly.1 mph81%30.01 "HgN/A
11:20 PM34 °FClear.2 mph81%30.01 "Hg10 mi
10:50 PM36 °FClear.1 mph75%30.01 "Hg10 mi
10:20 PM36 °FClear.2 mph70%30.01 "Hg10 mi
9:50 PM39 °FClear.3 mph65%30.01 "Hg10 mi
9:20 PM37 °FClear.1 mph60%30.01 "Hg10 mi
8:50 PM41 °FClear.2 mph57%30.04 "Hg10 mi
8:20 PM43 °FClear.2 mph49%30.01 "Hg10 mi
7:50 PM43 °FClear.1 mph49%30.01 "Hg10 mi
7:20 PM43 °FPassing clouds.5 mph49%30.01 "HgN/A
6:50 PM45 °FClear.7 mph46%30.01 "Hg10 mi
6:20 PM48 °FPassing clouds.14 mph40%30.01 "HgN/A
5:50 PM50 °FPassing clouds.13 mph37%30.01 "HgN/A
5:20 PM52 °FPassing clouds.15 mph35%30.01 "HgN/A
4:50 PM52 °FPassing clouds.17 mph35%29.98 "HgN/A
4:20 PM54 °FPassing clouds.15 mph33%29.98 "HgN/A
3:50 PM54 °FPassing clouds.15 mph35%29.98 "HgN/A
3:20 PM54 °FPassing clouds.9 mph33%30.01 "HgN/A
2:50 PM54 °FPassing clouds.12 mph33%30.01 "HgN/A
2:20 PM54 °FPassing clouds.16 mph33%30.01 "HgN/A
1:50 PM54 °FPassing clouds.15 mph30%30.01 "HgN/A
1:20 PM54 °FPassing clouds.17 mph33%30.04 "HgN/A
12:50 PM55 °FPassing clouds.15 mph31%30.04 "HgN/A
12:20 PM54 °FPassing clouds.15 mph35%30.04 "HgN/A
Weather by CustomWeather, © 2015

See weather overviewHow to use our weather pages